[[{"header":{"parameterUnit":"m.s-1","parameterCategory":1,"la1":30.2991,"la2":30.254,"lo1":-89.0895,"lo2":-89.0444,"dx":0.0017,"dy":0.0017,"nx":28,"ny":28,"refTime":"2023-01-27T09:00:00:Z","depth":0,"parameterNumber":2,"parameterNumberName":"U-component_of_WINDS"},"data":[0,0,0,0,0,0,0,0,0,0,0,0,0,0,0,0,0,0,0,0,0,0,0,0,0,0,0,0,0,0,0,0,0,0,0,0,0,0,0,0,0,0,0,0,0,0,0,0,0,0,0,0,0,0,0,0,0,0,-5.1904,-5.1905,0,-5.1973,-5.1973,-5.1974,-5.196,-5.1959,-5.1957,-5.1956,-5.2025,-5.2028,-5.2031,0,0,0,0,0,0,0,0,0,0,0,0,0,-5.1761,-5.1764,-5.1904,-5.1905,-5.1906,-5.1973,-5.1973,-5.1974,-5.196,-5.1959,-5.1957,-5.1956,-5.2024,-5.2028,-5.2032,0,0,0,0,0,0,0,0,0,0,0,0,0,-5.1826,-5.1764,-5.1904,-5.1906,-5.1907,-5.1972,-5.1974,-5.1975,-5.196,-5.1959,-5.1957,-5.1955,-5.2023,-5.2028,-5.2032,-5.2098,0,0,-5.2046,-5.2048,0,0,0,0,0,0,0,0,-5.1822,-5.1831,-5.1905,-5.1906,-5.1908,-5.1956,-5.1949,-5.2016,-5.1961,-5.194,-5.1956,-5.1954,-5.2004,-5.201,-5.2027,-5.2101,-5.2104,-5.2046,-5.2049,-5.2051,-5.2052,0,0,0,0,0,0,0,-5.1818,-5.1828,-5.1931,-5.1906,-5.1908,-5.1905,-5.1912,-5.1961,-5.1982,-5.1942,-5.1941,-5.1949,-5.2004,-5.2022,-5.2028,-5.2105,-5.2046,-5.205,-5.2053,-5.2055,-5.2239,-5.2242,0,0,0,0,0,0,-5.1812,-5.1824,-5.1929,-5.1933,-5.1859,-5.1909,-5.1917,-5.1942,-5.1981,-5.1985,-5.1951,-5.1949,-5.2016,-5.2023,-5.2031,-5.211,-5.2051,-5.2055,-5.2058,-5.2237,-5.224,-5.2242,0,0,0,0,0,0,-5.1809,-5.1821,-5.1926,-5.1879,-5.1892,-5.1913,-5.1942,-5.1945,-5.1963,-5.1988,-5.1992,-5.1966,-5.2014,-5.2024,-5.2082,-5.2113,-5.2057,-5.2061,-5.2235,-5.2238,-5.2241,-5.227,0,0,0,0,0,0,-5.1805,-5.182,-5.1845,-5.1879,-5.1894,-5.1975,-5.1944,-5.1947,-5.1971,-5.1968,-5.2003,-5.2007,-5.2014,-5.2075,-5.2086,-5.2118,-5.2065,-5.2232,-5.2236,-5.224,-5.2267,-5.2274,-5.2281,0,0,0,0,0,-5.18,-5.185,-5.1846,-5.1859,-5.1925,-5.1977,-5.1986,-5.1993,-5.1973,-5.1998,-5.2016,-5.2006,-5.2109,-5.2081,-5.2094,-5.2127,-5.223,-5.2235,-5.224,-5.2263,-5.2273,-5.228,0,0,0,0,0,0,-5.1817,-5.1854,-5.1851,-5.1913,-5.1943,-5.1975,-5.2006,-5.2002,-5.2037,-5.2033,-5.204,-5.2048,-5.2107,-5.2123,-5.2092,-5.2194,-5.2166,-5.2174,-5.218,-5.2189,-5.2196,-5.2189,-5.2069,0,0,0,0,0,-5.1829,-5.1868,-5.1898,-5.195,-5.1966,-5.1984,-5.2007,-5.201,-5.204,-5.2052,-5.2073,-5.2103,-5.2142,-5.2167,-5.2204,-5.2271,-5.2278,-5.23,-5.2307,-5.2313,-5.2318,-5.2355,-5.2365,-5.2258,-5.2258,-5.2258,0,0,-5.1852,-5.1877,-5.1901,-5.1955,-5.1977,-5.2018,-5.1994,-5.2037,-5.2067,-5.2059,-5.2114,-5.2131,-5.2165,-5.2227,-5.2256,-5.2243,-5.235,-5.2319,-5.2323,-5.2326,-5.2361,-5.2371,-5.238,-5.2262,-5.2261,-5.2261,0,0,-5.1914,-5.1938,-5.1984,-5.2008,-5.2044,-5.2057,-5.2068,-5.2102,-5.2113,-5.217,-5.2165,-5.2201,-5.2268,-5.2293,-5.2314,-5.2391,-5.2383,-5.2403,-5.2438,-5.2474,-5.2483,-5.249,-5.2516,-5.2526,-5.241,-5.241,-5.241,0,-5.1937,-5.1998,-5.2008,-5.2052,-5.2076,-5.2073,-5.212,-5.2144,-5.219,-5.2207,-5.2192,-5.2278,-5.23,-5.2368,-5.2388,-5.2406,-5.2419,-5.2397,-5.2481,-5.2488,-5.2495,-5.2521,-5.2531,-5.2412,-5.2411,-5.2411,-5.2411,0,-5.2025,-5.2068,-5.2101,-5.2147,-5.2175,-5.2221,-5.2238,-5.2266,-5.2269,-5.2283,-5.2342,-5.237,-5.2413,-5.2431,-5.2433,-5.25,-5.2491,-5.2479,-5.2451,-5.2507,-5.2531,-5.2541,-5.2414,-5.2414,-5.2413,-5.2413,0,0,-5.2095,-5.2149,-5.216,-5.2182,-5.2223,-5.2256,-5.2304,-5.2347,-5.2371,-5.2405,-5.2443,-5.2503,-5.2492,-5.2517,-5.2523,-5.2555,-5.2614,-5.2539,-5.254,-5.255,-5.2689,-5.2696,-5.2707,-5.2611,-5.2613,-5.2614,-5.2686,0,-5.2159,-5.2241,-5.2253,-5.2326,-5.2365,-5.2365,-5.2406,-5.2437,-5.2453,-5.249,-5.2508,-5.2549,-5.2533,-5.2548,-5.258,-5.2599,-5.2641,-5.2595,-5.2646,-5.2648,-5.2634,-5.2719,-5.2726,-5.2791,-5.2695,-5.2697,-5.2698,0,-5.2243,-5.228,-5.2357,-5.2395,-5.2413,-5.2449,-5.2491,-5.2526,-5.2562,-5.2572,-5.2601,-5.2604,-5.2654,-5.2627,-5.2696,-5.2664,-5.2687,-5.27,-5.2703,-5.2705,-5.2674,-5.2721,-5.2813,-5.2821,-5.2713,-5.2712,-5.2711,0,-5.2284,-5.2354,-5.2409,-5.2428,-5.2474,-5.25,-5.2521,-5.2555,-5.2581,-5.2618,-5.2636,-5.2679,-5.2701,-5.2735,-5.275,-5.273,-5.2818,-5.2792,-5.2826,-5.2826,-5.2841,-5.2839,-5.2935,-5.2861,-5.2861,-5.2861,-5.2861,0,-5.2353,-5.2399,-5.2428,-5.2461,-5.2514,-5.253,-5.2582,-5.2602,-5.2633,-5.267,-5.2675,-5.271,-5.2729,-5.2768,-5.2781,-5.2836,-5.2847,-5.2855,-5.2858,-5.2853,-5.2852,-5.2865,-5.286,-5.2864,-5.2863,-5.2863,-5.2862,0,-5.2405,-5.2427,-5.2486,-5.2527,-5.2539,-5.2576,-5.261,-5.2644,-5.2662,-5.271,-5.2722,-5.275,-5.2796,-5.2816,-5.2873,-5.2882,-5.2944,-5.2944,-5.2931,-5.2931,-5.2964,-5.296,-5.3068,-5.3083,-5.3002,-5.3003,-5.3004,0,-5.2445,-5.2481,-5.2527,-5.2553,-5.2575,-5.2617,-5.2644,-5.2663,-5.2691,-5.2737,-5.2764,-5.2811,-5.2849,-5.2923,-5.2949,-5.2993,-5.2993,-5.3028,-5.2999,-5.2994,-5.2991,-5.2987,-5.2991,-5.3032,-5.3033,-5.3033,-5.3034,0,-5.2514,-5.2524,-5.2564,-5.2608,-5.2641,-5.2677,-5.2712,-5.2733,-5.2757,-5.279,-5.2837,-5.2867,-5.2927,-5.2973,-5.3019,-5.3041,-5.3041,-5.3044,-5.3054,-5.3048,-5.3038,-5.3042,-5.2943,-5.304,-5.3039,-5.3039,-5.3039,-5.3038,-5.2561,-5.2593,-5.2631,-5.2675,-5.2704,-5.2738,-5.2771,-5.2795,-5.2835,-5.2885,-5.2894,-5.2945,-5.2983,-5.3046,-5.307,-5.3111,-5.3102,-5.3116,-5.3119,-5.3122,-5.3123,-5.3035,-5.312,-5.3119,-5.3119,-5.3119,-5.3119,0,-5.2628,-5.2653,-5.2695,-5.2744,-5.278,-5.278,-5.282,-5.2849,-5.2894,-5.293,-5.2968,-5.3024,-5.3071,-5.3102,-5.3149,-5.3175,-5.3177,-5.3187,-5.3183,-5.3188,-5.3129,-5.3115,-5.3185,-5.3185,-5.3185,-5.3185,-5.3185,-5.3185,-5.2667,-5.2722,-5.2737,-5.2807,-5.2832,-5.2883,-5.2905,-5.2937,-5.2965,-5.3028,-5.3066,-5.3087,-5.3122,-5.3172,-5.3215,-5.3223,-5.3239,-5.3249,-5.3256,-5.3199,-5.3192,-5.3186,-5.3172,-5.3253,-5.3253,-5.3312,-5.3312,-5.3313]},{"header":{"parameterUnit":"m.s-1","parameterCategory":1,"la1":30.2991,"la2":30.254,"lo1":-89.0895,"lo2":-89.0444,"dx":0.0017,"dy":0.0017,"nx":28,"ny":28,"refTime":"2023-01-27T09:00:00:Z","depth":0,"parameterNumber":3,"parameterNumberName":"V-component_of_WINDS"},"data":[0,0,0,0,0,0,0,0,0,0,0,0,0,0,0,0,0,0,0,0,0,0,0,0,0,0,0,0,0,0,0,0,0,0,0,0,0,0,0,0,0,0,0,0,0,0,0,0,0,0,0,0,0,0,0,0,0,0,2.9152,2.9152,0,2.9213,2.9214,2.9215,2.9303,2.9305,2.9306,2.9308,2.9368,2.9368,2.9368,0,0,0,0,0,0,0,0,0,0,0,0,0,2.9111,2.9111,2.9152,2.9153,2.9153,2.9213,2.9214,2.9215,2.9303,2.9305,2.9307,2.9308,2.9368,2.9368,2.9368,0,0,0,0,0,0,0,0,0,0,0,0,0,2.9146,2.9111,2.9152,2.9205,2.921,2.9213,2.9214,2.9215,2.9303,2.9305,2.9307,2.9309,2.9368,2.9368,2.9368,2.9324,0,0,2.9369,2.9369,0,0,0,0,0,0,0,0,2.9144,2.9147,2.9196,2.9201,2.9207,2.9253,2.9222,2.9252,2.9302,2.9267,2.9308,2.931,2.9328,2.9331,2.9338,2.9327,2.9329,2.9369,2.9369,2.9369,2.937,0,0,0,0,0,0,0,2.9141,2.9145,2.9176,2.9197,2.9203,2.9225,2.9233,2.9228,2.9284,2.927,2.9277,2.9283,2.9331,2.9337,2.934,2.933,2.9369,2.9369,2.937,2.937,2.929,2.9288,0,0,0,0,0,0,2.9131,2.9142,2.9174,2.9178,2.918,2.9224,2.9233,2.9236,2.9284,2.9294,2.9281,2.9287,2.9336,2.9339,2.9342,2.9297,2.9369,2.937,2.937,2.9292,2.929,2.9287,0,0,0,0,0,0,2.913,2.9133,2.9172,2.9162,2.9169,2.9222,2.9225,2.9236,2.9242,2.9292,2.9303,2.9277,2.9338,2.9342,2.9329,2.93,2.937,2.937,2.9295,2.9292,2.9289,2.9202,0,0,0,0,0,0,2.9128,2.9132,2.9115,2.9161,2.9169,2.9157,2.9224,2.9235,2.9243,2.9251,2.9291,2.93,2.934,2.9328,2.9329,2.9301,2.937,2.9298,2.9294,2.929,2.9208,2.9196,2.9186,0,0,0,0,0,2.9126,2.9087,2.9114,2.9117,2.9149,2.9155,2.916,2.9207,2.924,2.9224,2.9257,2.9299,2.9303,2.9326,2.9328,2.93,2.93,2.9295,2.929,2.9213,2.9199,2.9187,0,0,0,0,0,0,2.9034,2.9094,2.9124,2.9099,2.9121,2.917,2.9151,2.919,2.9202,2.921,2.9267,2.9275,2.9256,2.9276,2.9301,2.9261,2.9308,2.9303,2.9249,2.9236,2.9225,2.9221,2.937,0,0,0,0,0,2.9011,2.9012,2.9063,2.9036,2.9046,2.9096,2.91,2.9136,2.9161,2.9171,2.9202,2.9225,2.9232,2.9235,2.9243,2.9212,2.9223,2.9193,2.9182,2.9173,2.9169,2.9157,2.9145,2.9271,2.9271,2.9271,0,0,2.8963,2.8996,2.8992,2.9018,2.904,2.9039,2.9104,2.9099,2.91,2.917,2.9161,2.9185,2.9214,2.9192,2.9184,2.9209,2.9137,2.9167,2.9159,2.916,2.915,2.9138,2.9128,2.9267,2.9268,2.9268,0,0,2.8876,2.89,2.8881,2.8903,2.8936,2.897,2.8966,2.9009,2.9029,2.9021,2.9074,2.9075,2.9085,2.9105,2.9116,2.904,2.908,2.9041,2.8985,2.8973,2.8963,2.8955,2.893,2.892,2.9036,2.9036,2.9036,0,2.8812,2.8814,2.8866,2.886,2.8871,2.8936,2.8919,2.8937,2.897,2.8976,2.9004,2.902,2.9044,2.903,2.9012,2.9017,2.9016,2.9037,2.896,2.8952,2.8945,2.8922,2.8913,2.9031,2.9032,2.9032,2.9033,0,2.8735,2.8735,2.8716,2.875,2.8758,2.8746,2.8798,2.88,2.8835,2.8867,2.886,2.8891,2.8909,2.8908,2.8941,2.8899,2.8914,2.895,2.8998,2.8928,2.8907,2.8899,2.9024,2.9026,2.9028,2.9029,0,0,2.8589,2.8655,2.8647,2.8665,2.8707,2.8709,2.8701,2.872,2.8722,2.8744,2.874,2.8748,2.8783,2.8795,2.8831,2.882,2.8762,2.8858,2.886,2.8841,2.8722,2.8695,2.8684,2.8789,2.8787,2.8786,2.872,0,2.8512,2.8503,2.8551,2.8529,2.8532,2.8596,2.8589,2.8615,2.8645,2.8652,2.8685,2.8692,2.8735,2.8744,2.8736,2.8771,2.8739,2.8776,2.8786,2.8786,2.8778,2.8673,2.8645,2.8581,2.8712,2.8711,2.871,0,2.842,2.8439,2.8418,2.8465,2.8468,2.8461,2.8485,2.849,2.8522,2.8545,2.8561,2.8604,2.86,2.8646,2.8643,2.8667,2.8674,2.8692,2.8691,2.8694,2.8744,2.8676,2.8561,2.8552,2.8697,2.8698,2.8699,0,2.8319,2.834,2.8331,2.8343,2.8398,2.8392,2.8414,2.8448,2.8458,2.8478,2.8486,2.8504,2.8515,2.8529,2.8576,2.8604,2.8568,2.8617,2.8588,2.8587,2.8578,2.8578,2.8465,2.858,2.858,2.858,2.8581,0,2.8228,2.8213,2.8287,2.8281,2.8267,2.8324,2.8309,2.8337,2.8367,2.8369,2.8425,2.8425,2.8487,2.8494,2.8531,2.8524,2.8528,2.8547,2.8558,2.8543,2.8541,2.855,2.8556,2.8578,2.8578,2.8579,2.8579,0,2.8113,2.8162,2.8157,2.821,2.8223,2.8211,2.8256,2.8254,2.8289,2.8291,2.8294,2.8349,2.8361,2.841,2.8432,2.8458,2.844,2.8458,2.8429,2.8436,2.8406,2.8409,2.8295,2.8284,2.8404,2.8403,2.8402,0,2.8053,2.8044,2.8097,2.8103,2.8123,2.8132,2.8143,2.8199,2.8208,2.8246,2.8239,2.8256,2.8273,2.829,2.8332,2.835,2.8371,2.833,2.8374,2.8361,2.8373,2.8374,2.8374,2.8321,2.8319,2.8318,2.8317,0,2.7942,2.7967,2.7981,2.8005,2.8017,2.8038,2.8062,2.8063,2.8126,2.8134,2.8149,2.8162,2.8187,2.8204,2.8231,2.8254,2.8296,2.8303,2.8297,2.8283,2.8268,2.8278,2.8405,2.8305,2.8306,2.8307,2.8308,2.8308,2.7854,2.785,2.7888,2.7903,2.7927,2.7949,2.7951,2.7987,2.8001,2.8027,2.8059,2.807,2.8105,2.8145,2.8166,2.8175,2.8198,2.819,2.8188,2.8186,2.818,2.8266,2.818,2.818,2.8181,2.8181,2.8181,0,2.7748,2.7776,2.7789,2.7823,2.7835,2.7875,2.7904,2.7912,2.7921,2.7951,2.7967,2.7985,2.8003,2.8047,2.8069,2.8069,2.8089,2.8073,2.8074,2.8079,2.8157,2.816,2.8056,2.8056,2.8056,2.8056,2.8056,2.8056,2.7694,2.769,2.772,2.773,2.7759,2.7771,2.7785,2.7806,2.7831,2.7849,2.7864,2.7893,2.7929,2.7955,2.7974,2.7986,2.7993,2.7971,2.799,2.8061,2.8073,2.8085,2.8088,2.7971,2.7971,2.7912,2.7911,2.7911]}]]